Home   Weather   Syktyvkar   Past weeks
Flag for Russia

Past Weather in Syktyvkar, Russia — Yesterday and Last 2 Weeks

Now
25 °F

Clear.


Feels Like: 20 °F
Forecast: 34 / 24 °F
Wind: 3 mph from Northeast

Location: Syktyvkar Airport

Current Time: Oct 19, 2019 at 12:41:06 am

Latest Report: Oct 18, 2019 at 11:30 pm


Visibility: 10 mi

Pressure: 30.30 "Hg

Humidity: 100%

Dew Point: 25 °F

Location of SyktyvkarLocation

Past Weather in Syktyvkar — Graph

°F

Syktyvkar Temperature Yesterday

Maximum temperature yesterday: 34 °F (at 11:00 am)
Minimum temperature yesterday: 25 °F (at 9:00 pm)
Average temperature yesterday: 30 °F

High & Low Weather Summary for the Past Weeks

 TemperatureHumidityPressure
High54 °F (Oct 5, 12:30 am)100% (Oct 3, 11:30 pm)30.30 "Hg (Oct 3, 11:30 pm)
Low25 °F (Oct 18, 9:00 pm)61% (Oct 9, 1:30 pm)29.21 "Hg (Oct 13, 12:00 pm)
Average37 °F92%29.82 "Hg
* Reported Oct 3 11:30 pm — Oct 18 11:30 pm, Syktyvkar. Weather by CustomWeather, © 2019

Note: Actual official high and low records may vary slightly from our data, if they occured in-between our weather recording intervals... More about our weather records

Advertising

Syktyvkar Weather History for the Previous 24 Hours

Scroll right to see more
 ConditionsComfort  
Time TempWeatherWind HumidityBarometerVisibility
11:30 pm
Fri, Oct 18
25 °FClear.3 mph100%30.30 "Hg10 mi
11:00 pm25 °FPassing clouds.1 mph100%30.30 "HgN/A
10:30 pm27 °FPassing clouds.1 mph100%30.30 "HgN/A
10:00 pm25 °FPassing clouds.1 mph100%30.30 "HgN/A
9:30 pm25 °FClear.3 mph100%30.27 "Hg10 mi
9:00 pm25 °FClear.3 mph100%30.27 "Hg10 mi
8:30 pm27 °FClear.6 mph93%30.27 "Hg10 mi
8:00 pm27 °FClear.6 mph93%30.27 "Hg10 mi
7:30 pm27 °FPassing clouds.6 mph93%30.27 "HgN/A
7:00 pm28 °FPassing clouds.6 mph86%30.27 "HgN/A
6:30 pm28 °FPassing clouds.6 mph93%30.24 "HgN/A
6:00 pm30 °FPassing clouds.6 mph86%30.24 "HgN/A
5:30 pm30 °FPassing clouds.6 mph86%30.24 "HgN/A
5:00 pm32 °FPassing clouds.3 mph80%30.24 "HgN/A
4:30 pm32 °FPassing clouds.6 mph80%30.24 "HgN/A
4:00 pm32 °FPartly sunny.6 mph80%30.21 "HgN/A
3:30 pm34 °FPartly sunny.8 mph75%30.21 "HgN/A
3:00 pm34 °FBroken clouds.8 mph81%30.21 "HgN/A
2:30 pm34 °FPartly sunny.8 mph81%30.21 "HgN/A
2:00 pm34 °FOvercast.8 mph81%30.21 "HgN/A
1:30 pm34 °FMore clouds than sun.8 mph81%30.21 "HgN/A
1:00 pm34 °FMore clouds than sun.8 mph81%30.21 "HgN/A
12:30 pm34 °FMore clouds than sun.8 mph87%30.21 "HgN/A
12:00 pm34 °FMore clouds than sun.8 mph93%30.21 "HgN/A
11:30 am34 °FMore clouds than sun.8 mph87%30.18 "HgN/A
11:00 am34 °FCloudy.8 mph93%30.18 "HgN/A
10:30 am32 °FMore clouds than sun.8 mph100%30.18 "HgN/A
10:00 am32 °FMore clouds than sun.8 mph100%30.18 "HgN/A
9:30 am32 °FBroken clouds.6 mph100%30.18 "HgN/A
9:00 am32 °FMore clouds than sun.8 mph93%30.18 "HgN/A
8:30 am32 °FMore clouds than sun.6 mph93%30.15 "HgN/A
8:00 am30 °FMore clouds than sun.6 mph100%30.15 "HgN/A
7:30 am30 °FMore clouds than sun.3 mph100%30.15 "HgN/A
7:00 am30 °FMore clouds than sun.6 mph100%30.15 "HgN/A
6:30 am30 °FMore clouds than sun.6 mph100%30.15 "HgN/A
6:00 am30 °FMostly cloudy.6 mph100%30.15 "HgN/A
5:30 am30 °FMostly cloudy.6 mph100%30.12 "HgN/A
5:00 am30 °FMostly cloudy.6 mph100%30.12 "HgN/A
4:30 am30 °FMostly cloudy.6 mph100%30.12 "HgN/A
4:00 am30 °FMostly cloudy.6 mph100%30.12 "HgN/A
3:30 am30 °FMostly cloudy.6 mph100%30.12 "HgN/A
3:00 am30 °FMostly cloudy.3 mph100%30.12 "HgN/A
2:30 am28 °FOvercast.3 mph100%30.12 "HgN/A
2:00 am28 °FOvercast.3 mph100%30.12 "HgN/A
1:30 am28 °FOvercast.6 mph100%30.09 "HgN/A
1:00 am28 °FOvercast.6 mph100%30.09 "HgN/A
12:30 am28 °FMostly cloudy.6 mph100%30.09 "HgN/A
12:00 am27 °FPassing clouds.3 mph100%30.09 "HgN/A
Weather by CustomWeather, © 2019

See weather overview